Location: Unspecified
(64.9000°N, 0.0000°E)
Time: 04:17:50
(UTC+00:00)

Altair - Pass Details

Date: 20 June 2019
Orbit: 1501 x 1683 km, 47.2° (Epoch: 19 July)

Event Time Altitude Azimuth Distance (km) Brightness Sun altitude
Rises 21:22:41 0° 221° (SW) 4,759 9.9 3.5°
Reaches altitude 10° 21:26:28 10° 208° (SSW) 3,805 9.3 3.3°
Maximum altitude 21:33:39 24° 160° (SSE) 2,891 8.5 2.8°
Drops below altitude 10° 21:41:00 10° 112° (ESE) 3,910 9.2 2.4°
Sets 21:44:57 0° 100° (E) 4,917 9.8 2.2°
